User: anonymous   Login
Location: Bannatyne
(13.0833°N, 59.5333°W)
Time: 01:58:20
(UTC+00:00)
Language:

IUS-13 SRM-1 - Orbit

View from above orbital plane
View from above orbital plane
View from above satellite
View from above satellite

Ground track
Ground track

The orbit data is extracted from the following two-line orbital elements,

1 22315U 93003C   19342.46984401  .00005830  00000-0  60135-3 0  9997
2 22315  26.8570 116.0636 6324687 167.6461 221.5512  3.59536780291627
Epoch (UTC): 08 December 2019 11:16:34
Eccentricity: 0.6324687
inclination: 26.8570°
perigee height: 237 km
apogee height: 23004 km
right ascension of ascending node: 116.0636°
argument of perigee: 167.6461°
revolutions per day: 3.59536780
mean anomaly at epoch: 221.5512°
orbit number at epoch: 29162

The dashed part of the orbit path shows where the satellite is in the earth's shadow,  

DLR